Date String (YYYY-MM-DD hh:mm:ss) UTC,Instrument flags,absolute air pressure of the measurement (hPa),sample flow rate (lpm),inlet stack bypass flow (lpm),air temperature of the measurement (°C),ambient temperature measured by the external sensor (°C),aerosol sample conditioner tube jacket temperature (°C),OPC LED temperature (°C),internal box temperature (°C),relative humidity of the measurement (%),span deviation,mass concentration of particles derived from Lorenz-Mie calculation of OPC scattering (μg/m³),mass concentration of particles derived from Lorenz-Mie calculation of OPC scattering (μg/m³),mass concentration of particles derived from Lorenz-Mie calculation of OPC scattering (μg/m³)
DateTimeUTC,F1_M11,P_M11,Q1_M11,Q2_M11,T1_M11,T2_M11,T3_M11,T4_M11,T5_M11,U1_M11,ZSPAN_M11,X2_M11,X0_M11,X1_M11
2023-08-04 10:00:00,SystemResetWarning,0832.9,5.00,000.00,029.5,025.8,000.0,038.0,030.6,28.8,0000.0,0004.01,0007.49,0003.57
2023-08-04 10:01:00,SystemResetWarning,0832.7,5.00,000.00,029.4,026.2,000.0,038.0,030.7,30.3,0000.0,0004.04,0007.60,0003.56
2023-08-04 10:02:00,SystemResetWarning,0832.7,4.99,000.00,029.4,026.6,000.0,038.0,030.8,30.4,0000.0,0004.02,0007.55,0003.55
2023-08-04 10:03:00,SystemResetWarning,0832.8,5.00,000.00,029.4,026.9,000.0,038.0,030.9,29.8,0000.0,0004.05,0007.64,0003.55
2023-08-04 10:04:00,SystemResetWarning,0832.8,5.00,000.00,029.4,027.2,000.0,038.0,030.9,29.8,0000.0,0004.08,0007.75,0003.55
2023-08-04 10:05:00,SystemResetWarning,0832.8,5.00,000.00,029.4,027.4,000.0,038.0,030.9,30.2,0000.0,0004.07,0007.71,0003.55
2023-08-04 10:06:00,SystemResetWarning,0832.7,5.00,000.00,029.4,027.6,000.0,038.0,031.0,30.7,0000.0,0004.04,0007.65,0003.54
2023-08-04 10:07:00,SystemResetWarning,0832.7,5.00,000.00,029.5,027.8,000.0,038.0,031.0,30.7,0000.0,0004.03,0007.35,0003.53
2023-08-04 10:08:00,SystemResetWarning,0832.8,4.99,000.00,029.5,027.9,000.0,038.0,031.1,30.8,0000.0,0004.03,0007.15,0003.52
2023-08-04 10:09:00,SystemResetWarning,0832.8,5.00,000.00,029.5,028.0,000.0,038.0,031.1,30.7,0000.0,0004.02,0007.30,0003.51
2023-08-04 10:10:00,SystemResetWarning,0832.8,4.99,000.00,029.5,028.1,000.0,038.0,031.1,30.6,0000.0,0004.00,0007.25,0003.49
2023-08-04 10:11:00,SystemResetWarning,0832.7,5.00,000.00,029.6,028.2,000.0,038.0,031.2,30.7,0000.0,0003.97,0007.15,0003.47
2023-08-04 10:12:00,SystemResetWarning,0832.8,5.00,000.00,029.6,028.3,000.0,038.0,031.2,30.8,0000.0,0003.97,0007.36,0003.47
2023-08-04 10:13:00,SystemResetWarning,0832.8,5.00,000.00,029.6,028.3,000.0,038.0,031.2,30.6,0000.0,0003.97,0007.64,0003.47
2023-08-04 10:14:00,SystemResetWarning,0833.1,5.00,000.00,029.6,028.4,000.0,038.1,031.2,30.6,0000.0,0003.96,0007.69,0003.47
2023-08-04 10:15:00,SystemResetWarning,0833.2,5.00,000.00,029.7,028.5,000.0,038.1,031.3,30.8,0000.0,0003.96,0008.09,0003.47
2023-08-04 10:16:00,SystemResetWarning,0833.0,5.01,000.00,029.7,028.5,000.0,038.1,031.3,30.9,0000.0,0003.93,0008.01,0003.48
2023-08-04 10:17:00,SystemResetWarning,0832.9,5.01,000.00,029.7,028.6,000.0,038.1,031.3,30.6,0000.0,0003.93,0007.96,0003.48
2023-08-04 10:18:00,SystemResetWarning,0832.9,5.00,000.00,029.7,028.6,000.0,038.1,031.4,30.4,0000.0,0003.92,0007.96,0003.48
2023-08-04 10:19:00,SystemResetWarning,0832.8,5.00,000.00,029.8,028.6,000.0,038.2,031.4,30.3,0000.0,0003.93,0007.87,0003.49
2023-08-04 10:20:00,SystemResetWarning,0833.0,4.99,000.00,029.8,028.7,000.0,038.2,031.4,30.5,0000.0,0003.94,0007.81,0003.50
2023-08-04 10:21:00,SystemResetWarning,0833.0,5.00,000.00,029.8,028.7,000.0,038.2,031.4,30.8,0000.0,0003.97,0007.93,0003.51
2023-08-04 10:22:00,SystemResetWarning,0832.9,5.00,000.00,029.8,028.7,000.0,038.2,031.5,30.5,0000.0,0003.98,0007.97,0003.51
2023-08-04 10:23:00,SystemResetWarning,0832.9,5.00,000.00,029.9,028.7,000.0,038.2,031.5,30.4,0000.0,0003.95,0007.67,0003.50
2023-08-04 10:24:00,SystemResetWarning,0833.3,5.00,000.00,029.9,027.3,000.0,038.2,031.4,30.5,0000.0,0003.93,0007.90,0003.50
2023-08-04 10:25:00,SystemResetWarning,0833.3,5.00,000.00,029.8,025.7,000.0,038.0,031.2,30.9,0000.0,0003.93,0008.05,0003.50
2023-08-04 10:26:00,SystemResetWarning,0833.0,5.01,000.00,029.7,025.4,000.0,038.0,030.8,31.3,0000.0,0003.92,0007.57,0003.50
2023-08-04 10:27:00,SystemResetWarning,0832.8,5.02,000.00,029.6,025.6,000.0,038.0,030.7,31.8,0000.0,0003.95,0007.67,0003.50
2023-08-04 10:28:00,SystemResetWarning,0833.0,5.00,000.00,029.5,026.0,000.0,038.0,030.7,32.2,0000.0,0003.97,0007.70,0003.51
2023-08-04 10:29:00,SystemResetWarning,0833.4,5.00,000.00,029.5,026.4,000.0,038.0,030.8,32.5,0000.0,0003.99,0007.78,0003.52
2023-08-04 10:30:00,SystemResetWarning,0833.2,5.00,000.00,029.5,026.8,000.0,038.1,030.9,32.7,0000.0,0003.99,0007.81,0003.53
2023-08-04 10:31:00,SystemResetWarning,0833.4,4.99,000.00,029.5,027.1,000.0,038.0,030.9,32.7,0000.0,0003.98,0007.71,0003.53
2023-08-04 10:32:00,SystemResetWarning,0833.0,5.00,000.00,029.5,027.4,000.0,038.0,031.0,33.2,0000.0,0003.96,0007.59,0003.54
2023-08-04 10:33:00,SystemResetWarning,0832.9,5.01,000.00,029.5,027.6,000.0,038.0,031.0,33.1,0000.0,0003.98,0007.59,0003.56
2023-08-04 10:34:00,SystemResetWarning,0832.9,5.01,000.00,029.5,027.8,000.0,038.0,031.1,32.4,0000.0,0003.99,0007.56,0003.58
2023-08-04 10:35:00,SystemResetWarning,0833.0,5.00,000.00,029.5,027.9,000.0,038.0,031.1,32.6,0000.0,0003.97,0006.64,0003.57
2023-08-04 10:36:00,SystemResetWarning,0833.0,4.99,000.00,029.5,028.1,000.0,038.0,031.1,32.6,0000.0,0003.98,0006.30,0003.56
2023-08-04 10:37:00,SystemResetWarning,0833.2,5.00,000.00,029.6,028.2,000.0,038.0,031.2,32.2,0000.0,0004.01,0006.35,0003.56
2023-08-04 10:38:00,SystemResetWarning,0833.0,5.00,000.00,029.6,028.2,000.0,038.0,031.2,32.4,0000.0,0004.02,0006.44,0003.58
2023-08-04 10:39:00,SystemResetWarning,0833.1,5.01,000.00,029.6,028.3,000.0,038.1,031.2,32.5,0000.0,0004.02,0006.45,0003.58
2023-08-04 10:40:00,SystemResetWarning,0833.0,5.00,000.00,029.6,028.4,000.0,038.1,031.2,32.6,0000.0,0004.07,0006.69,0003.59
2023-08-04 10:41:00,SystemResetWarning,0833.2,5.01,000.00,029.7,028.4,000.0,038.1,031.3,32.7,0000.0,0004.08,0006.86,0003.58
2023-08-04 10:42:00,SystemResetWarning,0832.9,4.99,000.00,029.7,028.5,000.0,038.1,031.3,32.6,0000.0,0004.09,0006.97,0003.59
2023-08-04 10:43:00,SystemResetWarning,0833.2,5.00,000.00,029.7,028.5,000.0,038.1,031.3,32.7,0000.0,0004.08,0007.16,0003.58
2023-08-04 10:44:00,SystemResetWarning,0833.0,4.99,000.00,029.7,028.6,000.0,038.1,031.4,32.7,0000.0,0004.09,0007.26,0003.58
2023-08-04 10:45:00,SystemResetWarning,0833.1,5.00,000.00,029.8,028.6,000.0,038.2,031.4,32.7,0000.0,0004.11,0007.35,0003.59
2023-08-04 10:46:00,SystemResetWarning,0833.4,5.00,000.00,029.8,028.7,000.0,038.2,031.4,32.7,0000.0,0004.14,0007.42,0003.60
2023-08-04 10:47:00,SystemResetWarning,0833.1,5.00,000.00,029.8,028.7,000.0,038.2,031.4,32.5,0000.0,0004.14,0007.43,0003.61
2023-08-04 10:48:00,SystemResetWarning,0832.9,5.00,000.00,029.8,028.7,000.0,038.2,031.4,32.6,0000.0,0004.13,0007.39,0003.63
2023-08-04 10:49:00,SystemResetWarning,0832.9,5.00,000.00,029.9,028.8,000.0,038.2,031.5,32.5,0000.0,0004.11,0007.32,0003.65
2023-08-04 10:50:00,SystemResetWarning,0832.9,5.01,000.00,029.9,028.8,000.0,038.3,031.5,32.5,0000.0,0004.15,0007.41,0003.66
2023-08-04 10:51:00,SystemResetWarning,0832.9,5.00,000.00,029.9,028.8,000.0,038.3,031.5,32.3,0000.0,0004.15,0007.37,0003.68
2023-08-04 10:52:00,SystemResetWarning,0832.9,5.00,000.00,029.9,028.8,000.0,038.3,031.5,32.3,0000.0,0004.19,0007.28,0003.71
2023-08-04 10:53:00,SystemResetWarning,0832.9,5.01,000.00,030.0,028.8,000.0,038.3,031.6,32.3,0000.0,0004.22,0007.33,0003.74
2023-08-04 10:54:00,SystemResetWarning,0832.9,5.00,000.00,030.0,028.9,000.0,038.4,031.6,32.2,0000.0,0004.25,0007.28,0003.77
2023-08-04 10:55:00,SystemResetWarning,0833.0,5.00,000.00,030.0,028.8,000.0,038.4,031.6,32.1,0000.0,0004.27,0007.36,0003.79
2023-08-04 10:56:00,SystemResetWarning,0832.9,4.98,000.00,030.0,027.3,000.0,038.3,031.4,32.2,0000.0,0004.28,0007.35,0003.80
2023-08-04 10:57:00,SystemResetWarning,0833.0,5.02,000.00,029.9,025.8,000.0,038.2,031.2,32.3,0000.0,0004.31,0007.39,0003.81
2023-08-04 10:58:00,SystemResetWarning,0833.0,5.01,000.00,029.8,025.4,000.0,038.1,030.9,32.6,0000.0,0004.34,0007.52,0003.83
2023-08-04 10:59:00,SystemResetWarning,0833.0,4.99,000.00,029.7,025.7,000.0,038.2,030.8,32.9,0000.0,0004.35,0007.64,0003.83
